Location: Bauerbach
(50.4985°N, 10.3912°E)
Time: 18:04:04
(UTC+00:00)

Meteor 2-19 Rocket - Visible Passes

Search period start: 11 April 2026 00:00
Search period end: 21 April 2026 00:00
Orbit: 937 x 957 km, 82.5° (Epoch: 11 April)

Date Brightness Start Highest point End Pass type
(mag) Time Alt. Az. Time Alt. Az. Time Alt. Az.
11 Apr 4.8 18:38:43 10° N 18:44:40 46° ENE 18:50:32 10° SE visible
11 Apr 5.9 20:23:51 10° NNW 20:29:22 35° W 20:34:51 10° SSW visible
12 Apr 4.5 18:55:30 10° N 19:01:40 66° ENE 19:07:45 10° SSE visible
12 Apr 6.5 20:41:09 10° NNW 20:45:57 24° W 20:50:44 10° SW visible
13 Apr 4.5 19:12:21 10° N 19:18:35 86° WSW 19:24:43 10° S visible
13 Apr 6.9 20:58:47 10° NW 21:02:28 17° WNW 21:06:07 10° WSW visible
14 Apr 5.0 19:29:19 10° NNW 19:35:24 60° W 19:41:23 10° S visible
14 Apr 7.3 21:17:35 10° WNW 21:18:52 11° WNW 21:20:09 10° W visible
15 Apr 5.7 19:46:24 10° NNW 19:52:07 41° W 19:57:46 10° SSW visible
16 Apr 6.4 20:03:37 10° NNW 20:08:44 28° W 20:13:48 10° SW visible
17 Apr 6.9 20:21:07 10° NW 20:25:17 19° W 20:29:25 10° WSW visible
18 Apr 4.9 18:51:57 10° NNW 18:58:05 69° W 19:04:09 10° S visible
18 Apr 7.2 20:39:13 10° NW 20:41:43 13° WNW 20:44:13 10° W visible
19 Apr 5.6 19:08:59 10° NNW 19:14:50 47° W 19:20:38 10° SSW visible
20 Apr 6.3 19:26:09 10° NNW 19:31:30 32° W 19:36:49 10° SSW visible
